SCP
0 0 0 0 0 0 0 0 0 0 0 0 0 0 0 0 0 0 0 0 -0 -0 0 0 -0 -0 -0 0 0 0 0 0 0 0 0 -0 -0 -0 -0 0 0 0 0 0 0 0 0 0 0
0 0 0 0 0 0 0 0 0 0 0 0 0 0 0 0 -0 0 0 0 0 0 0 -0 -0 -0 -0 -0 0 0 0 0 0 0 0 0 0 0 0 -0 -0 -0 0 0 0 0 -0 -0 0
0 0 0 0 0 0 0 0 0 0 0 0 0 0 0 0 0 0 0 -0 0 0 0 0 0 0 0 0 0 0 0 0 0 0 0 0 0 0 0 0 0 0 -0 -0 -0 -0 -0 -0 -0
0 0 0 0 0 0 0 0 0 0 0 0 0 0 0 0 0 0 -0 -0 0 0 0 0 0 0 0 0 0 0 0 0 0 0 0 0 0 0 0 0 -0 -0 -0 -0 -0 -0 0 0 0
0 0 0 0 0 0 0 0 0 0 0 0 0 0 0 0 0 -0 -0 0 0 0 0 0 0 0 0 0 0 0 0 0 0 0 0 0 0 -0 -0 -0 -0 -0 -0 -0 -0 0 0 0 0
0 0 0 0 0 0 0 0 0 0 0 0 0 0 0 0 0 0 0 0 0 0 0 0 0 0 0 0 0 0 0 0 0 0 0 0 0 0 0 0 0 0 -0 0 0 0 0 0 0
0 0 0 0 0 0 0 0 0 0 0 0 0 0 0 0 0 0 -0 0 0 0 0 0 0 0 0 0 0 0 0 0 0 0 0 0 0 0 0 0 0 0 0 0 0 0 0 -0 0
0 0 0 0 0 0 0 0 0 0 0 0 0 0 0 0 0 0 0 0 0 0 0 0 0 0 0 0 0 0 0 0 0 0 0 0 0 0 0 0 0 0 0 0 0 0 0 0 0
0 0 0 0 0 0 0 0 0 0 0 0 0 0 0 0 0 0 0 0 0 0 0 0 0 0 0 0 0 0 0 0 0 0 0 0 0 0 0 0 0 0 0 0 -0 -0 0 0 0
0 0 0 0 0 0 0 0 0 0 0 0 0 0 0 0 0 0 0 0 0 -0 -0 -0 0 0 0 0 0 0 0 0 0 0 0 0 0 0 0 0 0 0 0 0 0 0 0 0 0
0 0 0 0 0 0 0 0 0 0 0 0 0 0 0 0 0 0 0 0 0 0 -0 -0 -0 -0 0 0 0 0 0 0 0 0 0 0 0 0 0 0 0 0 0 0 0 0 0 0 0
0 0 0 0 0 0 0 0 0 0 0 0 0 0 0 0 0 0 0 0 0 0 0 0 -0 0 0 0 0 0 0 0 0 0 0 0 0 0 0 0 0 0 0 0 0 0 0 0 0
0 0 0 0 0 0 0 0 0 0 0 0 0 0 0 0 0 0 0 0 0 0 0 0 0 0 0 0 0 0 0 0 0 0 0 0 0 0 0 0 0 0 0 0 0 0 0 0 0
0 0 0 0 0 0 0 0 0 0 0 0 0 0 0 0 0 0 0 0 0 0 0 0 0 0 0 0 0 0 0 0 0 0 0 0 0 0 0 0 0 0 0 0 0 0 0 0 0
0 0 0 0 0 0 0 0 0 0 0 0 0 0 0 0 0 0 0 0 0 0 0 0 0 0 0 0 0 0 0 0 0 0 0 0 0 0 0 0 0 0 0 0 0 0 0 0 0
0 0 0 0 0 0 0 0 0 0 0 0 0 0 0 0 0 0 0 0 0 0 0 0 0 0 0 0 0 0 0 0 0 0 0 0 0 0 0 0 0 0 0 0 0 0 0 0 0
0 0 0 0 0 0 0 0 0 0 0 0 0 0 0 0 0 0 0 0 0 0 0 0 0 0 0 0 0 0 0 0 0 0 0 0 0 0 0 0 0 0 0 0 0 0 0 0 0
0 0 0 0 0 0 0 0 0 0 0 0 0 0 0 0 0 0 0 0 0 0 0 0 0 0 0 0 0 0 0 0 0 0 0 0 0 0 0 0 0 0 0 0 0 0 0 0 0
0 0 0 0 0 0 0 0 0 0 0 0 0 0 0 0 0 0 0 0 0 0 0 0 0 0 0 0 0 0 0 0 0 0 0 0 0 0 0 0 0 0 0 0 0 0 0 0 0
0 0 0 0 0 0 0 0 0 0 0 0 0 0 0 0 0 0 0 0 0 0 0 0 0 0 0 0 0 0 0 0 0 0 0 0 0 0 0 0 0 0 0 0 0 0 -0 0 0
0 0 0 0 0 0 0 0 0 0 0 0 0 0 0 0 0 0 0 0 0 0 0 0 0 0 0 0 0 0 0 0 0 0 0 0 0 0 0 0 0 0 0 0 0 0 0 0 0
0 0 0 0 0 0 0 0 0 0 0 0 0 0 0 0 0 0 0 0 0 0 0 0 0 0 0 0 0 0 0 0 0 0 0 0 0 0 0 0 0 0 0 0 0 0 0 0 0
0 0 0 0 0 0 0 0 0 0 0 0 0 0 0 0 0 0 0 0 0 0 0 0 0 0 0 0 0 0 0 0 0 0 0 0 0 0 0 0 0 0 0 0 0 0 0 0 0
0 0 0 0 0 0 0 0 0 0 0 0 0 0 0 0 0 0 0 0 0 0 0 0 0 0 0 0 0 0 0 0 0 0 0 0 0 0 0 0 0 0 0 0 0 0 0 0 0
0 0 0 0 0 0 0 0 0 0 0 0 0 0 0 0 0 0 0 0 0 0 0 0 0 0 0 0 0 0 0 0 0 0 0 0 0 0 0 0 0 0 0 0 0 0 0 0 0
0 0 0 0 0 0 -0 0 0 0 0 0 0 0 0 0 0 0 0 0 0 0 0 0 0 0 0 0 0 0 0 0 0 0 0 0 0 0 0 0 0 0 0 0 0 0 0 0 0
0 0 0 0 0 0 0 0 0 0 0 0 0 0 0 0 0 0 0 0 0 0 0 0 0 0 0 0 0 0 0 0 0 0 0 0 0 0 0 0 0 0 0 0 0 0 0 0 0
0 0 0 0 0 0 0 0 0 0 0 0 0 0 0 0 0 0 0 0 0 0 0 0 0 0 0 0 0 0 0 0 0 0 0 0 0 0 0 0 0 0 0 0 0 0 0 0 0
0 0 0 0 0 0 0 0 0 -0 0 0 0 0 0 0 0 0 0 0 0 0 0 0 0 0 0 0 0 0 0 0 0 0 0 0 0 0 0 0 0 0 0 0 0 0 0 0 0
0 0 0 0 0 0 0 0 0 0 0 0 0 0 0 0 0 0 0 0 0 0 0 0 0 0 0 0 0 0 0 0 0 0 0 0 0 0 0 0 0 0 0 0 0 0 0 0 0
Wind_Speed_500mb
3 4 3 4 7 6 3 3 2 5 4 1 12 8 14 11 3 4 32 21 36 42 38 28 24 25 25 24 18 21 20 20 21 23 23 22 21 21 21 21 21 21 22 21 21 21 20 20 19
3 3 4 7 7 3 6 5 5 5 20 28 22 14 10 7 7 31 29 30 35 41 36 30 29 26 24 26 20 14 14 18 20 20 21 21 20 19 18 18 18 18 19 19 19 19 18 17 16
6 5 5 7 6 7 7 6 8 14 19 6 10 16 8 6 26 21 28 33 39 39 34 30 29 27 26 26 20 12 9 15 18 18 18 18 17 16 15 15 15 16 17 18 18 18 19 18 17
5 7 10 6 7 8 7 6 11 19 7 7 23 16 12 18 14 17 31 34 36 38 35 31 28 23 27 25 20 12 6 11 14 15 15 14 14 13 13 14 15 16 16 17 18 18 18 17 17
3 6 7 4 7 5 6 8 19 7 11 12 7 10 10 20 12 26 33 33 29 33 32 30 29 26 28 21 16 6 8 11 11 11 12 12 13 13 14 15 16 16 15 16 17 18 20 19 18
3 3 6 5 7 5 4 11 15 7 8 12 14 13 9 18 19 34 34 33 26 26 27 26 25 21 23 22 15 8 7 10 11 11 11 12 12 12 12 13 15 16 17 17 19 19 19 20 19
9 6 9 8 5 4 8 12 17 13 12 8 16 8 11 22 34 38 36 32 30 25 23 24 25 25 23 20 16 7 7 7 9 10 10 10 12 12 14 14 15 16 17 18 20 21 21 21 21
7 8 8 5 8 6 8 9 20 16 7 17 12 10 12 36 45 40 34 32 32 29 25 25 24 22 22 22 15 8 6 4 7 11 13 14 15 15 16 17 18 19 19 20 22 23 24 25 25
8 7 6 8 10 5 15 8 7 17 24 11 7 15 34 50 45 40 34 32 31 30 28 25 22 19 16 14 9 5 3 4 6 8 9 11 13 15 16 17 19 20 21 21 22 23 24 26 27
6 6 15 9 5 9 14 12 21 12 16 11 14 28 48 47 41 36 30 33 29 27 26 23 22 19 13 9 7 4 2 4 8 8 8 10 12 15 17 19 21 21 21 23 24 26 28 30 31
10 9 10 8 11 7 15 13 8 27 6 9 23 54 51 44 38 32 26 25 24 19 19 23 22 18 15 9 5 4 5 6 7 8 9 9 10 13 17 20 20 22 24 26 28 30 33 35 38
8 14 9 5 10 9 14 18 15 24 8 17 39 53 46 38 34 32 24 19 18 14 13 18 19 17 16 12 8 5 4 7 10 10 9 10 12 16 20 22 24 25 29 30 33 36 35 36 36
8 8 17 7 8 18 29 20 19 23 24 38 43 47 46 39 33 28 26 25 21 16 14 14 16 16 14 12 9 4 3 4 6 9 12 14 16 15 15 21 23 27 27 27 28 31 30 37 39
17 13 11 12 22 24 20 12 8 14 22 39 43 43 41 37 31 28 26 26 23 17 18 17 14 15 13 11 9 7 7 8 10 13 15 17 17 19 18 21 25 24 23 24 31 33 35 38 36
7 11 6 8 7 12 34 12 9 14 25 37 38 33 34 32 30 27 25 23 23 21 19 18 17 16 15 14 14 14 11 10 12 16 19 21 27 27 19 16 14 25 22 25 29 29 31 36 38
6 8 10 2 2 5 11 6 4 24 30 34 34 32 30 29 27 23 21 16 18 23 27 26 21 20 22 26 17 16 15 16 8 12 18 20 4 6 16 15 16 23 30 29 34 37 36 33 33
7 11 9 6 10 3 6 7 2 25 32 34 32 32 30 28 25 22 19 18 14 14 17 29 25 22 26 19 11 17 9 6 14 8 3 6 7 16 19 22 26 25 28 29 28 27 32 35 33
15 11 5 10 4 13 11 10 10 17 31 33 27 27 28 23 20 19 17 15 15 13 13 14 29 29 24 19 18 10 8 3 2 8 10 13 15 21 21 21 20 21 21 22 27 31 35 39 42
9 8 11 6 8 10 7 15 11 21 25 27 25 25 23 20 18 16 13 13 13 14 15 15 27 35 34 23 20 13 3 7 11 10 9 10 12 13 14 16 19 23 28 34 36 36 38 42 46
34 19 7 6 14 10 7 14 6 7 10 21 27 23 20 22 18 17 16 14 14 18 16 22 29 29 31 26 15 5 4 8 4 6 8 8 10 13 16 21 25 29 32 34 38 41 43 45 47
26 24 14 11 13 12 11 7 7 1 10 16 22 22 22 22 21 22 20 23 23 24 27 30 32 30 23 16 9 11 11 7 7 6 6 9 14 18 22 27 29 31 33 36 39 41 43 43 41
19 3 24 29 14 6 7 11 12 13 10 13 23 28 25 25 22 26 26 26 28 30 32 33 32 27 21 16 12 12 9 9 12 7 8 13 17 21 24 28 31 34 36 36 38 38 37 37 37
7 20 21 20 18 10 9 8 3 25 17 19 29 28 30 31 31 32 32 33 35 35 36 36 33 30 27 22 18 15 14 10 8 8 11 16 20 23 26 28 29 32 34 34 35 35 37 37 36
10 11 20 18 12 8 17 17 8 15 21 19 25 38 41 40 38 38 38 39 40 39 38 36 32 32 29 22 18 11 8 7 7 9 13 18 21 24 25 27 31 32 33 34 36 38 37 38 38
11 18 4 7 8 5 14 18 13 12 12 38 50 61 56 52 52 49 48 47 44 39 36 32 26 25 22 15 10 7 6 7 8 11 14 17 20 23 26 28 29 32 34 35 35 36 36 36 35
28 21 10 13 10 11 10 9 7 4 6 40 60 65 63 59 55 54 54 49 45 39 31 27 22 16 14 10 6 7 8 9 12 16 19 23 25 27 30 32 34 33 33 33 34 34 35 35 35
14 18 11 11 4 6 7 2 5 2 8 35 52 65 68 66 60 54 52 49 46 40 33 26 19 13 9 5 5 7 9 13 16 20 23 25 27 29 29 29 28 28 28 30 32 35 35 36 36
11 16 4 2 10 7 5 7 10 6 16 21 36 55 67 68 64 60 53 49 43 38 30 23 17 10 5 3 5 8 11 14 18 21 23 26 29 29 27 25 24 25 27 30 33 35 36 37 38
8 11 4 8 2 7 5 8 6 17 29 40 56 65 70 74 73 62 55 46 41 34 27 19 12 8 4 1 5 8 11 15 19 22 26 30 30 27 24 22 23 25 27 30 32 34 37 40 43
5 11 10 8 6 2 1 8 3 9 25 31 40 46 57 73 66 61 55 48 41 33 25 18 12 6 2 2 6 9 12 17 22 26 29 29 28 25 22 21 23 24 26 29 32 36 42 45 47
Wind_Direction_500mb
129 150 157 101 54 56 276 247 264 98 78 109 127 128 120 71 74 127 141 151 160 161 158 156 146 136 134 129 114 117 91 98 103 105 103 99 91 83 77 70 68 64 61 56 53 50 47 41 33
155 146 150 101 91 67 273 260 170 84 125 105 95 92 67 82 85 132 139 147 155 160 155 149 143 138 131 137 144 132 84 91 97 97 97 91 86 79 73 71 64 58 54 49 44 40 35 31 24
131 164 137 92 114 179 210 225 183 122 132 104 106 74 77 56 125 129 136 146 153 160 153 148 149 150 144 145 152 140 93 94 100 102 99 91 84 78 71 62 56 48 41 38 33 27 20 15 11
166 143 70 93 198 240 201 191 130 134 110 115 120 74 80 120 109 133 139 145 153 159 155 158 158 159 152 149 161 156 95 100 98 93 86 79 70 62 54 45 36 33 28 22 17 13 11 6 1
196 127 79 109 246 243 240 158 149 146 135 131 139 125 91 150 123 143 139 143 148 159 163 167 171 164 165 157 171 164 115 101 89 85 80 68 56 46 36 30 24 19 17 13 10 5 3 1 358
143 100 92 197 245 250 205 151 152 113 118 121 100 102 122 151 145 148 143 141 142 150 160 171 174 175 179 185 186 152 107 79 69 65 57 46 35 27 22 17 13 14 14 8 2 357 356 357 354
136 99 188 186 232 219 151 151 147 133 127 85 124 89 135 150 151 149 150 145 146 147 155 160 161 158 158 157 161 140 118 90 65 49 38 33 32 31 25 21 19 16 9 1 358 356 355 353 351
155 102 142 222 204 181 156 125 130 138 126 124 137 145 164 156 153 150 154 154 151 149 152 160 161 160 160 167 178 172 157 119 60 36 29 22 22 24 19 14 9 5 359 355 353 351 350 349 348
160 83 184 211 174 172 163 132 132 119 127 107 103 143 149 152 154 154 154 160 159 156 155 158 162 165 170 178 187 177 141 89 41 32 29 24 18 11 6 3 0 358 352 348 344 342 341 340 339
137 141 207 195 207 175 162 139 136 134 121 83 94 134 150 156 158 155 161 162 162 160 159 158 159 160 161 173 173 165 126 77 60 41 27 17 11 9 1 3 359 355 348 344 342 339 337 335 332
176 191 193 186 223 162 134 104 92 127 87 160 154 145 154 158 160 162 166 162 152 155 165 167 162 160 155 163 167 152 115 74 41 25 22 13 10 5 0 5 360 355 347 349 350 350 347 347 342
167 223 182 208 174 139 119 113 67 59 24 130 146 147 156 160 165 172 169 156 152 147 153 168 171 163 158 150 144 127 53 35 8 11 357 353 344 354 342 338 338 333 337 340 345 339 338 338 336
190 211 190 197 125 112 127 87 110 62 108 138 146 152 155 166 176 174 172 167 172 177 168 164 164 157 150 135 125 98 347 325 311 313 309 315 322 328 324 319 321 322 317 319 324 322 324 328 321
212 182 164 152 136 132 105 99 83 64 122 134 148 149 158 163 169 173 179 182 191 201 193 181 183 173 176 174 176 202 213 235 270 296 310 311 310 296 297 301 299 320 321 314 319 323 321 319 323
197 142 143 72 150 131 109 51 56 115 139 128 141 141 150 156 168 177 187 195 197 199 200 192 200 184 186 191 209 217 244 265 273 291 299 298 304 291 315 303 322 332 332 331 333 330 326 322 318
195 120 158 32 144 134 185 185 86 120 142 117 125 137 147 151 168 173 188 197 208 206 205 201 190 184 198 210 215 223 245 238 253 297 291 284 298 321 337 337 335 336 329 329 326 325 326 330 338
293 180 159 159 14 162 48 151 176 151 151 129 130 132 133 144 153 166 176 182 188 189 197 179 176 189 207 211 219 183 164 281 283 286 319 46 11 336 336 337 336 336 329 329 338 347 346 343 341
195 160 136 148 14 47 75 106 106 152 160 141 137 135 136 141 145 156 165 171 171 162 160 165 172 185 194 199 183 203 169 206 193 331 358 6 344 320 330 334 336 343 351 350 349 348 342 337 333
272 152 123 49 32 76 76 120 141 146 146 142 148 144 140 141 138 147 162 175 177 175 171 165 164 178 178 193 193 209 208 274 282 292 326 335 340 354 13 13 2 350 346 346 343 340 338 335 336
263 209 127 108 39 81 133 103 125 141 140 165 155 153 149 144 143 146 149 159 162 163 168 160 168 175 174 171 174 199 240 241 270 300 330 23 34 11 357 349 345 344 341 337 335 337 342 345 346
217 217 165 142 100 72 147 89 183 91 148 159 161 160 158 147 149 139 143 144 143 148 150 162 163 168 175 167 182 214 215 209 136 110 72 22 8 358 350 345 342 341 340 341 343 344 346 348 352
201 248 168 139 121 160 351 212 210 178 182 188 173 169 162 153 151 144 143 137 137 138 140 146 151 152 156 170 193 180 177 159 131 100 31 359 347 345 342 342 341 343 345 344 346 347 348 349 350
211 156 210 158 144 139 198 292 157 154 203 203 198 177 163 162 161 148 142 136 130 128 135 139 143 151 149 151 143 137 136 119 77 32 3 344 341 344 343 342 345 344 346 349 351 352 353 356 356
151 121 183 190 176 219 175 181 214 200 197 190 179 186 174 169 163 153 145 136 129 126 126 128 132 130 129 131 126 116 94 65 29 355 351 341 343 344 343 347 347 352 352 354 358 0 358 360 357
237 154 187 210 196 189 159 181 247 179 202 190 179 181 180 175 170 161 154 149 142 139 134 131 135 131 127 124 111 92 52 28 358 350 352 348 346 346 348 354 352 356 358 357 358 356 355 356 357
211 173 160 190 183 206 162 223 241 291 351 180 176 177 177 176 174 167 160 158 149 148 152 147 142 144 131 111 88 49 17 2 354 353 355 349 352 353 353 355 354 355 355 354 353 354 355 355 355
174 230 147 109 28 100 189 296 273 355 115 145 155 165 177 180 177 172 165 160 157 159 162 155 149 141 120 96 48 27 5 357 356 353 354 350 350 350 348 349 348 350 349 348 351 354 353 352 350
193 159 127 37 150 172 218 269 232 216 174 162 164 169 177 181 178 175 171 165 161 160 163 159 151 147 132 87 33 5 356 352 353 352 348 347 345 344 344 343 341 343 346 348 350 350 348 345 343
146 175 130 113 102 154 154 246 196 205 185 181 181 180 176 180 178 174 171 168 165 164 164 161 161 156 149 32 357 345 345 346 348 345 343 341 337 335 331 331 335 340 341 343 345 345 344 342 339
287 166 155 174 206 2 74 264 149 244 180 179 176 170 174 181 177 176 175 173 168 171 169 171 178 184 195 313 325 328 338 342 343 341 337 332 325 319 318 320 326 329 333 338 341 342 340 336 333
Wind_Speed_850mb
3 4 3 4 7 6 3 3 2 5 4 1 12 8 14 11 3 4 32 21 36 42 38 28 24 25 25 24 18 21 20 20 21 23 23 22 21 21 21 21 21 21 22 21 21 21 20 20 19
3 3 4 7 7 3 6 5 5 5 20 28 22 14 10 7 7 31 29 30 35 41 36 30 29 26 24 26 20 14 14 18 20 20 21 21 20 19 18 18 18 18 19 19 19 19 18 17 16
6 5 5 7 6 7 7 6 8 14 19 6 10 16 8 6 26 21 28 33 39 39 34 30 29 27 26 26 20 12 9 15 18 18 18 18 17 16 15 15 15 16 17 18 18 18 19 18 17
5 7 10 6 7 8 7 6 11 19 7 7 23 16 12 18 14 17 31 34 36 38 35 31 28 23 27 25 20 12 6 11 14 15 15 14 14 13 13 14 15 16 16 17 18 18 18 17 17
3 6 7 4 7 5 6 8 19 7 11 12 7 10 10 20 12 26 33 33 29 33 32 30 29 26 28 21 16 6 8 11 11 11 12 12 13 13 14 15 16 16 15 16 17 18 20 19 18
3 3 6 5 7 5 4 11 15 7 8 12 14 13 9 18 19 34 34 33 26 26 27 26 25 21 23 22 15 8 7 10 11 11 11 12 12 12 12 13 15 16 17 17 19 19 19 20 19
9 6 9 8 5 4 8 12 17 13 12 8 16 8 11 22 34 38 36 32 30 25 23 24 25 25 23 20 16 7 7 7 9 10 10 10 12 12 14 14 15 16 17 18 20 21 21 21 21
7 8 8 5 8 6 8 9 20 16 7 17 12 10 12 36 45 40 34 32 32 29 25 25 24 22 22 22 15 8 6 4 7 11 13 14 15 15 16 17 18 19 19 20 22 23 24 25 25
8 7 6 8 10 5 15 8 7 17 24 11 7 15 34 50 45 40 34 32 31 30 28 25 22 19 16 14 9 5 3 4 6 8 9 11 13 15 16 17 19 20 21 21 22 23 24 26 27
6 6 15 9 5 9 14 12 21 12 16 11 14 28 48 47 41 36 30 33 29 27 26 23 22 19 13 9 7 4 2 4 8 8 8 10 12 15 17 19 21 21 21 23 24 26 28 30 31
10 9 10 8 11 7 15 13 8 27 6 9 23 54 51 44 38 32 26 25 24 19 19 23 22 18 15 9 5 4 5 6 7 8 9 9 10 13 17 20 20 22 24 26 28 30 33 35 38
8 14 9 5 10 9 14 18 15 24 8 17 39 53 46 38 34 32 24 19 18 14 13 18 19 17 16 12 8 5 4 7 10 10 9 10 12 16 20 22 24 25 29 30 33 36 35 36 36
8 8 17 7 8 18 29 20 19 23 24 38 43 47 46 39 33 28 26 25 21 16 14 14 16 16 14 12 9 4 3 4 6 9 12 14 16 15 15 21 23 27 27 27 28 31 30 37 39
17 13 11 12 22 24 20 12 8 14 22 39 43 43 41 37 31 28 26 26 23 17 18 17 14 15 13 11 9 7 7 8 10 13 15 17 17 19 18 21 25 24 23 24 31 33 35 38 36
7 11 6 8 7 12 34 12 9 14 25 37 38 33 34 32 30 27 25 23 23 21 19 18 17 16 15 14 14 14 11 10 12 16 19 21 27 27 19 16 14 25 22 25 29 29 31 36 38
6 8 10 2 2 5 11 6 4 24 30 34 34 32 30 29 27 23 21 16 18 23 27 26 21 20 22 26 17 16 15 16 8 12 18 20 4 6 16 15 16 23 30 29 34 37 36 33 33
7 11 9 6 10 3 6 7 2 25 32 34 32 32 30 28 25 22 19 18 14 14 17 29 25 22 26 19 11 17 9 6 14 8 3 6 7 16 19 22 26 25 28 29 28 27 32 35 33
15 11 5 10 4 13 11 10 10 17 31 33 27 27 28 23 20 19 17 15 15 13 13 14 29 29 24 19 18 10 8 3 2 8 10 13 15 21 21 21 20 21 21 22 27 31 35 39 42
9 8 11 6 8 10 7 15 11 21 25 27 25 25 23 20 18 16 13 13 13 14 15 15 27 35 34 23 20 13 3 7 11 10 9 10 12 13 14 16 19 23 28 34 36 36 38 42 46
34 19 7 6 14 10 7 14 6 7 10 21 27 23 20 22 18 17 16 14 14 18 16 22 29 29 31 26 15 5 4 8 4 6 8 8 10 13 16 21 25 29 32 34 38 41 43 45 47
26 24 14 11 13 12 11 7 7 1 10 16 22 22 22 22 21 22 20 23 23 24 27 30 32 30 23 16 9 11 11 7 7 6 6 9 14 18 22 27 29 31 33 36 39 41 43 43 41
19 3 24 29 14 6 7 11 12 13 10 13 23 28 25 25 22 26 26 26 28 30 32 33 32 27 21 16 12 12 9 9 12 7 8 13 17 21 24 28 31 34 36 36 38 38 37 37 37
7 20 21 20 18 10 9 8 3 25 17 19 29 28 30 31 31 32 32 33 35 35 36 36 33 30 27 22 18 15 14 10 8 8 11 16 20 23 26 28 29 32 34 34 35 35 37 37 36
10 11 20 18 12 8 17 17 8 15 21 19 25 38 41 40 38 38 38 39 40 39 38 36 32 32 29 22 18 11 8 7 7 9 13 18 21 24 25 27 31 32 33 34 36 38 37 38 38
11 18 4 7 8 5 14 18 13 12 12 38 50 61 56 52 52 49 48 47 44 39 36 32 26 25 22 15 10 7 6 7 8 11 14 17 20 23 26 28 29 32 34 35 35 36 36 36 35
28 21 10 13 10 11 10 9 7 4 6 40 60 65 63 59 55 54 54 49 45 39 31 27 22 16 14 10 6 7 8 9 12 16 19 23 25 27 30 32 34 33 33 33 34 34 35 35 35
14 18 11 11 4 6 7 2 5 2 8 35 52 65 68 66 60 54 52 49 46 40 33 26 19 13 9 5 5 7 9 13 16 20 23 25 27 29 29 29 28 28 28 30 32 35 35 36 36
11 16 4 2 10 7 5 7 10 6 16 21 36 55 67 68 64 60 53 49 43 38 30 23 17 10 5 3 5 8 11 14 18 21 23 26 29 29 27 25 24 25 27 30 33 35 36 37 38
8 11 4 8 2 7 5 8 6 17 29 40 56 65 70 74 73 62 55 46 41 34 27 19 12 8 4 1 5 8 11 15 19 22 26 30 30 27 24 22 23 25 27 30 32 34 37 40 43
5 11 10 8 6 2 1 8 3 9 25 31 40 46 57 73 66 61 55 48 41 33 25 18 12 6 2 2 6 9 12 17 22 26 29 29 28 25 22 21 23 24 26 29 32 36 42 45 47
Wind_Direction_850mb
129 150 157 101 54 56 276 247 264 98 78 109 127 128 120 71 74 127 141 151 160 161 158 156 146 136 134 129 114 117 91 98 103 105 103 99 91 83 77 70 68 64 61 56 53 50 47 41 33
155 146 150 101 91 67 273 260 170 84 125 105 95 92 67 82 85 132 139 147 155 160 155 149 143 138 131 137 144 132 84 91 97 97 97 91 86 79 73 71 64 58 54 49 44 40 35 31 24
131 164 137 92 114 179 210 225 183 122 132 104 106 74 77 56 125 129 136 146 153 160 153 148 149 150 144 145 152 140 93 94 100 102 99 91 84 78 71 62 56 48 41 38 33 27 20 15 11
166 143 70 93 198 240 201 191 130 134 110 115 120 74 80 120 109 133 139 145 153 159 155 158 158 159 152 149 161 156 95 100 98 93 86 79 70 62 54 45 36 33 28 22 17 13 11 6 1
196 127 79 109 246 243 240 158 149 146 135 131 139 125 91 150 123 143 139 143 148 159 163 167 171 164 165 157 171 164 115 101 89 85 80 68 56 46 36 30 24 19 17 13 10 5 3 1 358
143 100 92 197 245 250 205 151 152 113 118 121 100 102 122 151 145 148 143 141 142 150 160 171 174 175 179 185 186 152 107 79 69 65 57 46 35 27 22 17 13 14 14 8 2 357 356 357 354
136 99 188 186 232 219 151 151 147 133 127 85 124 89 135 150 151 149 150 145 146 147 155 160 161 158 158 157 161 140 118 90 65 49 38 33 32 31 25 21 19 16 9 1 358 356 355 353 351
155 102 142 222 204 181 156 125 130 138 126 124 137 145 164 156 153 150 154 154 151 149 152 160 161 160 160 167 178 172 157 119 60 36 29 22 22 24 19 14 9 5 359 355 353 351 350 349 348
160 83 184 211 174 172 163 132 132 119 127 107 103 143 149 152 154 154 154 160 159 156 155 158 162 165 170 178 187 177 141 89 41 32 29 24 18 11 6 3 0 358 352 348 344 342 341 340 339
137 141 207 195 207 175 162 139 136 134 121 83 94 134 150 156 158 155 161 162 162 160 159 158 159 160 161 173 173 165 126 77 60 41 27 17 11 9 1 3 359 355 348 344 342 339 337 335 332
176 191 193 186 223 162 134 104 92 127 87 160 154 145 154 158 160 162 166 162 152 155 165 167 162 160 155 163 167 152 115 74 41 25 22 13 10 5 0 5 360 355 347 349 350 350 347 347 342
167 223 182 208 174 139 119 113 67 59 24 130 146 147 156 160 165 172 169 156 152 147 153 168 171 163 158 150 144 127 53 35 8 11 357 353 344 354 342 338 338 333 337 340 345 339 338 338 336
190 211 190 197 125 112 127 87 110 62 108 138 146 152 155 166 176 174 172 167 172 177 168 164 164 157 150 135 125 98 347 325 311 313 309 315 322 328 324 319 321 322 317 319 324 322 324 328 321
212 182 164 152 136 132 105 99 83 64 122 134 148 149 158 163 169 173 179 182 191 201 193 181 183 173 176 174 176 202 213 235 270 296 310 311 310 296 297 301 299 320 321 314 319 323 321 319 323
197 142 143 72 150 131 109 51 56 115 139 128 141 141 150 156 168 177 187 195 197 199 200 192 200 184 186 191 209 217 244 265 273 291 299 298 304 291 315 303 322 332 332 331 333 330 326 322 318
195 120 158 32 144 134 185 185 86 120 142 117 125 137 147 151 168 173 188 197 208 206 205 201 190 184 198 210 215 223 245 238 253 297 291 284 298 321 337 337 335 336 329 329 326 325 326 330 338
293 180 159 159 14 162 48 151 176 151 151 129 130 132 133 144 153 166 176 182 188 189 197 179 176 189 207 211 219 183 164 281 283 286 319 46 11 336 336 337 336 336 329 329 338 347 346 343 341
195 160 136 148 14 47 75 106 106 152 160 141 137 135 136 141 145 156 165 171 171 162 160 165 172 185 194 199 183 203 169 206 193 331 358 6 344 320 330 334 336 343 351 350 349 348 342 337 333
272 152 123 49 32 76 76 120 141 146 146 142 148 144 140 141 138 147 162 175 177 175 171 165 164 178 178 193 193 209 208 274 282 292 326 335 340 354 13 13 2 350 346 346 343 340 338 335 336
263 209 127 108 39 81 133 103 125 141 140 165 155 153 149 144 143 146 149 159 162 163 168 160 168 175 174 171 174 199 240 241 270 300 330 23 34 11 357 349 345 344 341 337 335 337 342 345 346
217 217 165 142 100 72 147 89 183 91 148 159 161 160 158 147 149 139 143 144 143 148 150 162 163 168 175 167 182 214 215 209 136 110 72 22 8 358 350 345 342 341 340 341 343 344 346 348 352
201 248 168 139 121 160 351 212 210 178 182 188 173 169 162 153 151 144 143 137 137 138 140 146 151 152 156 170 193 180 177 159 131 100 31 359 347 345 342 342 341 343 345 344 346 347 348 349 350
211 156 210 158 144 139 198 292 157 154 203 203 198 177 163 162 161 148 142 136 130 128 135 139 143 151 149 151 143 137 136 119 77 32 3 344 341 344 343 342 345 344 346 349 351 352 353 356 356
151 121 183 190 176 219 175 181 214 200 197 190 179 186 174 169 163 153 145 136 129 126 126 128 132 130 129 131 126 116 94 65 29 355 351 341 343 344 343 347 347 352 352 354 358 0 358 360 357
237 154 187 210 196 189 159 181 247 179 202 190 179 181 180 175 170 161 154 149 142 139 134 131 135 131 127 124 111 92 52 28 358 350 352 348 346 346 348 354 352 356 358 357 358 356 355 356 357
211 173 160 190 183 206 162 223 241 291 351 180 176 177 177 176 174 167 160 158 149 148 152 147 142 144 131 111 88 49 17 2 354 353 355 349 352 353 353 355 354 355 355 354 353 354 355 355 355
174 230 147 109 28 100 189 296 273 355 115 145 155 165 177 180 177 172 165 160 157 159 162 155 149 141 120 96 48 27 5 357 356 353 354 350 350 350 348 349 348 350 349 348 351 354 353 352 350
193 159 127 37 150 172 218 269 232 216 174 162 164 169 177 181 178 175 171 165 161 160 163 159 151 147 132 87 33 5 356 352 353 352 348 347 345 344 344 343 341 343 346 348 350 350 348 345 343
146 175 130 113 102 154 154 246 196 205 185 181 181 180 176 180 178 174 171 168 165 164 164 161 161 156 149 32 357 345 345 346 348 345 343 341 337 335 331 331 335 340 341 343 345 345 344 342 339
287 166 155 174 206 2 74 264 149 244 180 179 176 170 174 181 177 176 175 173 168 171 169 171 178 184 195 313 325 328 338 342 343 341 337 332 325 319 318 320 326 329 333 338 341 342 340 336 333